sat.trackr.live / text

‹ back to catalog

STARLINK-32376

NORAD 61707 · 2024-196A

PAYLOAD ACTIVE UNKNOWN

§ Identity

Operator
Country
US
Launch date
2024-10-30
Launch site
AFETR
Launch vehicle
Mass (kg)
RCS (m²)

Purposes: comms

External: N2YO · Heavens-Above · Gunter

§ Orbital elements

Epoch: 2026-09-21T17:18:59.270976Z

Period
93.85 min
Inclination
53.1596°
Eccentricity
0.0001478
Mean motion
15.34388272 rev/d
Perigee alt
461.7 km
Apogee alt
463.7 km
Semi-major
6,840.9 km
B*
4.6598e-5
RAAN
267.6983°
Arg perigee
88.1379°
Mean anomaly
271.9793°
Rev number
10,722

§ Raw data

STARLINK-323761 61707U 24196A   26264.72151934  .00001198  00000+0  46598-4 0  99992 61707  53.1596 267.6983 0001478  88.1379 271.9793 15.34388272107222

JSON: /api/v1/satellites/61707 · /tle

For live sub-satellite position, see the globe view (requires WebGL).

§ Visibility from observer

Set your observer location to see the next 7 days of passes ≥ 10°. The values pass through the URL so the page stays shareable.

No JS? Fill the form by hand. The geolocation button needs JavaScript.